Year,Month,Day,Hour,Minute,Value (Times are PST for temperature in C)
2014,08,11,00,00,20.00
2014,08,11,00,01,20.00
2014,08,11,00,02,20.00
2014,08,11,00,03,20.00
2014,08,11,00,04,20.00
2014,08,11,00,05,20.00
2014,08,11,00,06,19.90
2014,08,11,00,07,19.90
2014,08,11,00,08,19.90
2014,08,11,00,09,19.80
2014,08,11,00,10,19.80
2014,08,11,00,11,19.80
2014,08,11,00,12,19.70
2014,08,11,00,13,19.70
2014,08,11,00,14,19.70
2014,08,11,00,15,19.60
2014,08,11,00,16,19.60
2014,08,11,00,17,19.50
2014,08,11,00,18,19.50
2014,08,11,00,19,19.40
2014,08,11,00,20,19.40
2014,08,11,00,21,19.30
2014,08,11,00,22,19.30
2014,08,11,00,23,19.30
2014,08,11,00,24,19.30
2014,08,11,00,25,19.30
2014,08,11,00,26,19.30
2014,08,11,00,27,19.20
2014,08,11,00,28,19.20
2014,08,11,00,29,19.20
2014,08,11,00,30,19.20
2014,08,11,00,31,19.20
2014,08,11,00,32,19.20
2014,08,11,00,33,19.10
2014,08,11,00,34,19.10
2014,08,11,00,35,19.10
2014,08,11,00,36,19.10
2014,08,11,00,37,19.00
2014,08,11,00,38,19.00
2014,08,11,00,39,19.00
2014,08,11,00,40,18.90
2014,08,11,00,41,18.90
2014,08,11,00,42,18.90
2014,08,11,00,43,18.90
2014,08,11,00,44,18.90
2014,08,11,00,45,18.90
2014,08,11,00,46,18.90
2014,08,11,00,47,18.90
2014,08,11,00,48,18.90
2014,08,11,00,49,18.80
2014,08,11,00,50,18.80
2014,08,11,00,51,18.80
2014,08,11,00,52,18.90
2014,08,11,00,53,18.80
2014,08,11,00,54,18.90
2014,08,11,00,55,18.90
2014,08,11,00,56,18.90
2014,08,11,00,57,18.90
2014,08,11,00,58,18.90
2014,08,11,00,59,18.90
2014,08,11,01,00,18.90
2014,08,11,01,01,18.90
2014,08,11,01,02,18.90
2014,08,11,01,03,18.90
2014,08,11,01,04,18.90
2014,08,11,01,05,18.80
2014,08,11,01,06,18.80
2014,08,11,01,07,18.80
2014,08,11,01,08,18.80
2014,08,11,01,09,18.80
2014,08,11,01,10,18.80
2014,08,11,01,11,18.70
2014,08,11,01,12,18.70
2014,08,11,01,13,18.70
2014,08,11,01,14,18.70
2014,08,11,01,15,18.60
2014,08,11,01,16,18.60
2014,08,11,01,17,18.60
2014,08,11,01,18,18.60
2014,08,11,01,19,18.60
2014,08,11,01,20,18.50
2014,08,11,01,21,18.50
2014,08,11,01,22,18.50
2014,08,11,01,23,18.50
2014,08,11,01,24,18.50
2014,08,11,01,25,18.40
2014,08,11,01,26,18.40
2014,08,11,01,27,18.40
2014,08,11,01,28,18.40
2014,08,11,01,29,18.40
2014,08,11,01,30,18.30
2014,08,11,01,31,18.30
2014,08,11,01,32,18.30
2014,08,11,01,33,18.30
2014,08,11,01,34,18.20
2014,08,11,01,35,18.20
2014,08,11,01,36,18.20
2014,08,11,01,37,18.20
2014,08,11,01,38,18.10
2014,08,11,01,39,18.10
2014,08,11,01,40,18.10
2014,08,11,01,41,18.10
2014,08,11,01,42,18.00
2014,08,11,01,43,18.00
2014,08,11,01,44,18.00
2014,08,11,01,45,17.90
2014,08,11,01,46,17.90
2014,08,11,01,47,17.90
2014,08,11,01,48,17.90
2014,08,11,01,49,17.80
2014,08,11,01,50,17.80
2014,08,11,01,51,17.80
2014,08,11,01,52,17.80
2014,08,11,01,53,17.80
2014,08,11,01,54,17.80
2014,08,11,01,55,17.80
2014,08,11,01,56,17.80
2014,08,11,01,57,17.70
2014,08,11,01,58,17.70
2014,08,11,01,59,17.70
2014,08,11,02,00,17.70
2014,08,11,02,01,17.70
2014,08,11,02,02,17.70
2014,08,11,02,03,17.70
2014,08,11,02,04,17.60
2014,08,11,02,05,17.60
2014,08,11,02,06,17.60
2014,08,11,02,07,17.60
2014,08,11,02,08,17.50
2014,08,11,02,09,17.50
2014,08,11,02,10,17.40
2014,08,11,02,11,17.40
2014,08,11,02,12,17.40
2014,08,11,02,13,17.40
2014,08,11,02,14,17.40
2014,08,11,02,15,17.30
2014,08,11,02,16,17.30
2014,08,11,02,17,17.30
2014,08,11,02,18,17.30
2014,08,11,02,19,17.30
2014,08,11,02,20,17.30
2014,08,11,02,21,17.30
2014,08,11,02,22,17.20
2014,08,11,02,23,17.20
2014,08,11,02,24,17.20
2014,08,11,02,25,17.20
2014,08,11,02,26,17.20
2014,08,11,02,27,17.20
2014,08,11,02,28,17.20
2014,08,11,02,29,17.10
2014,08,11,02,30,17.10
2014,08,11,02,31,17.10
2014,08,11,02,32,17.00
2014,08,11,02,33,17.00
2014,08,11,02,34,16.90
2014,08,11,02,35,16.90
2014,08,11,02,36,16.90
2014,08,11,02,37,16.90
2014,08,11,02,38,16.90
2014,08,11,02,39,16.80
2014,08,11,02,40,16.80
2014,08,11,02,41,16.80
2014,08,11,02,42,16.80
2014,08,11,02,43,16.80
2014,08,11,02,44,16.80
2014,08,11,02,45,16.80
2014,08,11,02,46,16.80
2014,08,11,02,47,16.70
2014,08,11,02,48,16.70
2014,08,11,02,49,16.70
2014,08,11,02,50,16.70
2014,08,11,02,51,16.70
2014,08,11,02,52,16.70
2014,08,11,02,53,16.80
2014,08,11,02,54,16.70
2014,08,11,02,55,16.70
2014,08,11,02,56,16.70
2014,08,11,02,57,16.70
2014,08,11,02,58,16.70
2014,08,11,02,59,16.70
2014,08,11,03,00,16.70
2014,08,11,03,01,16.70
2014,08,11,03,02,16.70
2014,08,11,03,03,16.60
2014,08,11,03,04,16.60
2014,08,11,03,05,16.60
2014,08,11,03,06,16.50
2014,08,11,03,07,16.50
2014,08,11,03,08,16.40
2014,08,11,03,09,16.40
2014,08,11,03,10,16.40
2014,08,11,03,11,16.30
2014,08,11,03,12,16.30
2014,08,11,03,13,16.30
2014,08,11,03,14,16.30
2014,08,11,03,15,16.30
2014,08,11,03,16,16.30
2014,08,11,03,17,16.30
2014,08,11,03,18,16.30
2014,08,11,03,19,16.30
2014,08,11,03,20,16.30
2014,08,11,03,21,16.30
2014,08,11,03,22,16.30
2014,08,11,03,23,16.30
2014,08,11,03,24,16.30
2014,08,11,03,25,16.30
2014,08,11,03,26,16.30
2014,08,11,03,27,16.30
2014,08,11,03,28,16.30
2014,08,11,03,29,16.30
2014,08,11,03,30,16.30
2014,08,11,03,31,16.20
2014,08,11,03,32,16.20
2014,08,11,03,33,16.20
2014,08,11,03,34,16.20
2014,08,11,03,35,16.10
2014,08,11,03,36,16.20
2014,08,11,03,37,16.20
2014,08,11,03,38,16.10
2014,08,11,03,39,16.10
2014,08,11,03,40,16.10
2014,08,11,03,41,16.10
2014,08,11,03,42,16.10
2014,08,11,03,43,16.10
2014,08,11,03,44,16.10
2014,08,11,03,45,16.10
2014,08,11,03,46,16.00
2014,08,11,03,47,16.00
2014,08,11,03,48,16.00
2014,08,11,03,49,15.90
2014,08,11,03,50,15.90
2014,08,11,03,51,15.90
2014,08,11,03,52,15.90
2014,08,11,03,53,15.90
2014,08,11,03,54,15.90
2014,08,11,03,55,15.90
2014,08,11,03,56,15.90
2014,08,11,03,57,15.90
2014,08,11,03,58,15.90
2014,08,11,03,59,15.90
2014,08,11,04,00,15.90
2014,08,11,04,01,15.90
2014,08,11,04,02,15.90
2014,08,11,04,03,15.90
2014,08,11,04,04,15.80
2014,08,11,04,05,15.80
2014,08,11,04,06,15.80
2014,08,11,04,07,15.80
2014,08,11,04,08,15.80
2014,08,11,04,09,15.80
2014,08,11,04,10,15.80
2014,08,11,04,11,15.80
2014,08,11,04,12,15.80
2014,08,11,04,13,15.70
2014,08,11,04,14,15.70
2014,08,11,04,15,15.70
2014,08,11,04,16,15.70
2014,08,11,04,17,15.60
2014,08,11,04,18,15.60
2014,08,11,04,19,15.60
2014,08,11,04,20,15.60
2014,08,11,04,21,15.60
2014,08,11,04,22,15.60
2014,08,11,04,23,15.60
2014,08,11,04,24,15.60
2014,08,11,04,25,15.60
2014,08,11,04,26,15.60
2014,08,11,04,27,15.60
2014,08,11,04,28,15.60
2014,08,11,04,29,15.60
2014,08,11,04,30,15.60
2014,08,11,04,31,15.60
2014,08,11,04,32,15.60
2014,08,11,04,33,15.60
2014,08,11,04,34,15.60
2014,08,11,04,35,15.60
2014,08,11,04,36,15.50
2014,08,11,04,37,15.50
2014,08,11,04,38,15.50
2014,08,11,04,39,15.40
2014,08,11,04,40,15.40
2014,08,11,04,41,15.40
2014,08,11,04,42,15.40
2014,08,11,04,43,15.40
2014,08,11,04,44,15.40
2014,08,11,04,45,15.40
2014,08,11,04,46,15.40
2014,08,11,04,47,15.30
2014,08,11,04,48,15.30
2014,08,11,04,49,15.30
2014,08,11,04,50,15.30
2014,08,11,04,51,15.30
2014,08,11,04,52,15.30
2014,08,11,04,53,15.30
2014,08,11,04,54,15.20
2014,08,11,04,55,15.20
2014,08,11,04,56,15.20
2014,08,11,04,57,15.10
2014,08,11,04,58,15.10
2014,08,11,04,59,15.00
2014,08,11,05,00,15.00
2014,08,11,05,01,15.00
2014,08,11,05,02,15.00
2014,08,11,05,03,15.00
2014,08,11,05,04,15.00
2014,08,11,05,05,15.00
2014,08,11,05,06,15.00
2014,08,11,05,07,15.00
2014,08,11,05,08,15.00
2014,08,11,05,09,15.00
2014,08,11,05,10,15.00
2014,08,11,05,11,15.00
2014,08,11,05,12,15.00
2014,08,11,05,13,15.00
2014,08,11,05,14,15.00
2014,08,11,05,15,15.00
2014,08,11,05,16,15.00
2014,08,11,05,17,15.00
2014,08,11,05,18,15.00
2014,08,11,05,19,15.00
2014,08,11,05,20,15.00
2014,08,11,05,21,15.00
2014,08,11,05,22,15.00
2014,08,11,05,23,15.00
2014,08,11,05,24,15.00
2014,08,11,05,25,15.00
2014,08,11,05,26,15.00
2014,08,11,05,27,15.00
2014,08,11,05,28,15.00
2014,08,11,05,29,15.00
2014,08,11,05,30,15.00
2014,08,11,05,31,15.00
2014,08,11,05,32,15.00
2014,08,11,05,33,15.00
2014,08,11,05,34,15.00
2014,08,11,05,35,15.00
2014,08,11,05,36,15.00
2014,08,11,05,37,15.00
2014,08,11,05,38,15.00
2014,08,11,05,39,15.00
2014,08,11,05,40,15.00
2014,08,11,05,41,15.00
2014,08,11,05,42,15.00
2014,08,11,05,43,15.00
2014,08,11,05,44,15.00
2014,08,11,05,45,15.00
2014,08,11,05,46,15.00
2014,08,11,05,47,15.00
2014,08,11,05,48,15.00
2014,08,11,05,49,15.00
2014,08,11,05,50,15.00
2014,08,11,05,51,15.00
2014,08,11,05,52,15.00
2014,08,11,05,53,15.00
2014,08,11,05,54,15.00
2014,08,11,05,55,15.00
2014,08,11,05,56,15.00
2014,08,11,05,57,15.00
2014,08,11,05,58,15.00
2014,08,11,05,59,15.00
2014,08,11,06,00,15.00
2014,08,11,06,01,15.00
2014,08,11,06,02,15.00
2014,08,11,06,03,14.90
2014,08,11,06,04,14.90
2014,08,11,06,05,14.90
2014,08,11,06,06,14.90
2014,08,11,06,07,14.80
2014,08,11,06,08,14.80
2014,08,11,06,09,14.80
2014,08,11,06,10,14.80
2014,08,11,06,11,14.80
2014,08,11,06,12,14.80
2014,08,11,06,13,14.80
2014,08,11,06,14,14.80
2014,08,11,06,15,14.80
2014,08,11,06,16,14.80
2014,08,11,06,17,14.80
2014,08,11,06,18,14.80
2014,08,11,06,19,14.80
2014,08,11,06,20,14.80
2014,08,11,06,21,14.80
2014,08,11,06,22,14.80
2014,08,11,06,23,14.80
2014,08,11,06,24,14.80
2014,08,11,06,25,14.80
2014,08,11,06,26,14.80
2014,08,11,06,27,14.70
2014,08,11,06,28,14.70
2014,08,11,06,29,14.70
2014,08,11,06,30,14.70
2014,08,11,06,31,14.70
2014,08,11,06,32,14.70
2014,08,11,06,33,14.70
2014,08,11,06,34,14.70
2014,08,11,06,35,14.70
2014,08,11,06,36,14.70
2014,08,11,06,37,14.70
2014,08,11,06,38,14.70
2014,08,11,06,39,14.70
2014,08,11,06,40,14.70
2014,08,11,06,41,14.70
2014,08,11,06,42,14.70
2014,08,11,06,43,14.70
2014,08,11,06,44,14.70
2014,08,11,06,45,14.70
2014,08,11,06,46,14.80
2014,08,11,06,47,14.80
2014,08,11,06,48,14.80
2014,08,11,06,49,14.80
2014,08,11,06,50,14.80
2014,08,11,06,51,14.80
2014,08,11,06,52,14.80
2014,08,11,06,53,14.90
2014,08,11,06,54,14.90
2014,08,11,06,55,14.90
2014,08,11,06,56,14.90
2014,08,11,06,57,14.90
2014,08,11,06,58,15.00
2014,08,11,06,59,15.00
2014,08,11,07,00,15.00
2014,08,11,07,01,15.00
2014,08,11,07,02,15.00
2014,08,11,07,03,15.00
2014,08,11,07,04,15.00
2014,08,11,07,05,15.00
2014,08,11,07,06,15.00
2014,08,11,07,07,15.00
2014,08,11,07,08,15.00
2014,08,11,07,09,15.00
2014,08,11,07,10,15.00
2014,08,11,07,11,15.00
2014,08,11,07,12,15.00
2014,08,11,07,13,15.00
2014,08,11,07,14,15.00
2014,08,11,07,15,15.00
2014,08,11,07,16,15.10
2014,08,11,07,17,15.10
2014,08,11,07,18,15.20
2014,08,11,07,19,15.20
2014,08,11,07,20,15.20
2014,08,11,07,21,15.20
2014,08,11,07,22,15.20
2014,08,11,07,23,15.20
2014,08,11,07,24,15.30
2014,08,11,07,25,15.30
2014,08,11,07,26,15.30
2014,08,11,07,27,15.30
2014,08,11,07,28,15.40
2014,08,11,07,29,15.40
2014,08,11,07,30,15.40
2014,08,11,07,31,15.50
2014,08,11,07,32,15.50
2014,08,11,07,33,15.50
2014,08,11,07,34,15.60
2014,08,11,07,35,15.60
2014,08,11,07,36,15.60
2014,08,11,07,37,15.60
2014,08,11,07,38,15.70
2014,08,11,07,39,15.70
2014,08,11,07,40,15.70
2014,08,11,07,41,15.80
2014,08,11,07,42,15.80
2014,08,11,07,43,15.80
2014,08,11,07,44,15.80
2014,08,11,07,45,15.80
2014,08,11,07,46,15.90
2014,08,11,07,47,15.90
2014,08,11,07,48,15.90
2014,08,11,07,49,15.90
2014,08,11,07,50,16.00
2014,08,11,07,51,16.00
2014,08,11,07,52,16.10
2014,08,11,07,53,16.10
2014,08,11,07,54,16.20
2014,08,11,07,55,16.20
2014,08,11,07,56,16.30
2014,08,11,07,57,16.30
2014,08,11,07,58,16.30
2014,08,11,07,59,16.40
2014,08,11,08,00,16.40
2014,08,11,08,01,16.40
2014,08,11,08,02,16.50
2014,08,11,08,03,16.50
2014,08,11,08,04,16.60
2014,08,11,08,05,16.60
2014,08,11,08,06,16.70
2014,08,11,08,07,16.70
2014,08,11,08,08,16.70
2014,08,11,08,09,16.80
2014,08,11,08,10,16.80
2014,08,11,08,11,16.80
2014,08,11,08,12,16.90
2014,08,11,08,13,16.90
2014,08,11,08,14,16.90
2014,08,11,08,15,17.00
2014,08,11,08,16,17.10
2014,08,11,08,17,17.10
2014,08,11,08,18,17.20
2014,08,11,08,19,17.20
2014,08,11,08,20,17.30
2014,08,11,08,21,17.30
2014,08,11,08,22,17.40
2014,08,11,08,23,17.40
2014,08,11,08,24,17.50
2014,08,11,08,25,17.60
2014,08,11,08,26,17.60
2014,08,11,08,27,17.70
2014,08,11,08,28,17.80
2014,08,11,08,29,17.80
2014,08,11,08,30,17.90
2014,08,11,08,31,17.90
2014,08,11,08,32,18.00
2014,08,11,08,33,18.10
2014,08,11,08,34,18.20
2014,08,11,08,35,18.20
2014,08,11,08,36,18.30
2014,08,11,08,37,18.30
2014,08,11,08,38,18.40
2014,08,11,08,39,18.40
2014,08,11,08,40,18.50
2014,08,11,08,41,18.60
2014,08,11,08,42,18.60
2014,08,11,08,43,18.70
2014,08,11,08,44,18.80
2014,08,11,08,45,18.90
2014,08,11,08,46,18.90
2014,08,11,08,47,19.00
2014,08,11,08,48,19.00
2014,08,11,08,49,19.10
2014,08,11,08,50,19.20
2014,08,11,08,51,19.30
2014,08,11,08,52,19.30
2014,08,11,08,53,19.40
2014,08,11,08,54,19.50
2014,08,11,08,55,19.60
2014,08,11,08,56,19.70
2014,08,11,08,57,19.80
2014,08,11,08,58,19.90
2014,08,11,08,59,19.90
2014,08,11,09,00,20.00
2014,08,11,09,01,20.10
2014,08,11,09,02,20.20
2014,08,11,09,03,20.20
2014,08,11,09,04,20.30
2014,08,11,09,05,20.40
2014,08,11,09,06,20.50
2014,08,11,09,07,20.50
2014,08,11,09,08,20.60
2014,08,11,09,09,20.70
2014,08,11,09,10,20.80
2014,08,11,09,11,20.80
2014,08,11,09,12,20.90
2014,08,11,09,13,21.00
2014,08,11,09,14,21.10
2014,08,11,09,15,21.20
2014,08,11,09,16,21.20
2014,08,11,09,17,21.40
2014,08,11,09,18,21.50
2014,08,11,09,19,21.60
2014,08,11,09,20,21.70
2014,08,11,09,21,21.80
2014,08,11,09,22,21.90
2014,08,11,09,23,22.00
2014,08,11,09,24,22.10
2014,08,11,09,25,22.20
2014,08,11,09,26,22.30
2014,08,11,09,27,22.40
2014,08,11,09,28,22.40
2014,08,11,09,29,22.50
2014,08,11,09,30,22.60
2014,08,11,09,31,22.70
2014,08,11,09,32,22.80
2014,08,11,09,33,22.90
2014,08,11,09,34,23.00
2014,08,11,09,35,23.10
2014,08,11,09,36,23.20
2014,08,11,09,37,23.30
2014,08,11,09,38,23.40
2014,08,11,09,39,23.50
2014,08,11,09,40,23.50
2014,08,11,09,41,23.60
2014,08,11,09,42,23.70
2014,08,11,09,43,23.80
2014,08,11,09,44,23.80
2014,08,11,09,45,23.90
2014,08,11,09,46,23.90
2014,08,11,09,47,24.00
2014,08,11,09,48,24.10
2014,08,11,09,49,24.10
2014,08,11,09,50,24.20
2014,08,11,09,51,24.20
2014,08,11,09,52,24.30
2014,08,11,09,53,24.30
2014,08,11,09,54,24.40
2014,08,11,09,55,24.40
2014,08,11,09,56,24.50
2014,08,11,09,57,24.60
2014,08,11,09,58,24.60
2014,08,11,09,59,24.70
2014,08,11,10,00,24.70
2014,08,11,10,01,24.70
2014,08,11,10,02,24.80
2014,08,11,10,03,24.80
2014,08,11,10,04,24.80
2014,08,11,10,05,24.90
2014,08,11,10,06,24.90
2014,08,11,10,07,24.90
2014,08,11,10,08,25.00
2014,08,11,10,09,25.10
2014,08,11,10,10,25.10
2014,08,11,10,11,25.20
2014,08,11,10,12,25.30
2014,08,11,10,13,25.30
2014,08,11,10,14,25.30
2014,08,11,10,15,25.40
2014,08,11,10,16,25.40
2014,08,11,10,17,25.40
2014,08,11,10,18,25.50
2014,08,11,10,19,25.50
2014,08,11,10,20,25.60
2014,08,11,10,21,25.70
2014,08,11,10,22,25.80
2014,08,11,10,23,25.80
2014,08,11,10,24,25.90
2014,08,11,10,25,25.90
2014,08,11,10,26,26.00
2014,08,11,10,27,26.10
2014,08,11,10,28,26.20
2014,08,11,10,29,26.30
2014,08,11,10,30,26.30
2014,08,11,10,31,26.40
2014,08,11,10,32,26.40
2014,08,11,10,33,26.40
2014,08,11,10,34,26.40
2014,08,11,10,35,26.40
2014,08,11,10,36,26.30
2014,08,11,10,37,26.30
2014,08,11,10,38,26.30
2014,08,11,10,39,26.30
2014,08,11,10,40,26.30
2014,08,11,10,41,26.30
2014,08,11,10,42,26.30
2014,08,11,10,43,26.30
2014,08,11,10,44,26.30
2014,08,11,10,45,26.40
2014,08,11,10,46,26.40
2014,08,11,10,47,26.40
2014,08,11,10,48,26.40
2014,08,11,10,49,26.40
2014,08,11,10,50,26.40
2014,08,11,10,51,26.40
2014,08,11,10,52,26.50
2014,08,11,10,53,26.60
2014,08,11,10,54,26.60
2014,08,11,10,55,26.70
2014,08,11,10,56,26.80
2014,08,11,10,57,26.90
2014,08,11,10,58,27.00
2014,08,11,10,59,27.10
2014,08,11,11,00,27.20
2014,08,11,11,01,27.40
2014,08,11,11,02,27.40
2014,08,11,11,03,27.50
2014,08,11,11,04,27.60
2014,08,11,11,05,27.70
2014,08,11,11,06,27.70
2014,08,11,11,07,27.80
2014,08,11,11,08,27.90
2014,08,11,11,09,27.90
2014,08,11,11,10,28.00
2014,08,11,11,11,28.10
2014,08,11,11,12,28.10
2014,08,11,11,13,28.20
2014,08,11,11,14,28.20
2014,08,11,11,15,28.30
2014,08,11,11,16,28.40
2014,08,11,11,17,28.50
2014,08,11,11,18,28.50
2014,08,11,11,19,28.50
2014,08,11,11,20,28.50
2014,08,11,11,21,28.50
2014,08,11,11,22,28.60
2014,08,11,11,23,28.60
2014,08,11,11,24,28.70
2014,08,11,11,25,28.60
2014,08,11,11,26,28.60
2014,08,11,11,27,28.60
2014,08,11,11,28,28.50
2014,08,11,11,29,28.50
2014,08,11,11,30,28.50
2014,08,11,11,31,28.50
2014,08,11,11,32,28.50
2014,08,11,11,33,28.60
2014,08,11,11,34,28.60
2014,08,11,11,35,28.60
2014,08,11,11,36,28.60
2014,08,11,11,37,28.70
2014,08,11,11,38,28.70
2014,08,11,11,39,28.70
2014,08,11,11,40,28.80
2014,08,11,11,41,28.90
2014,08,11,11,42,29.00
2014,08,11,11,43,29.10
2014,08,11,11,44,29.10
2014,08,11,11,45,29.20
2014,08,11,11,46,29.20
2014,08,11,11,47,29.30
2014,08,11,11,48,29.30
2014,08,11,11,49,29.40
2014,08,11,11,50,29.40
2014,08,11,11,51,29.50
2014,08,11,11,52,29.40
2014,08,11,11,53,29.40
2014,08,11,11,54,29.30
2014,08,11,11,55,29.30
2014,08,11,11,56,29.30
2014,08,11,11,57,29.30
2014,08,11,11,58,29.30
2014,08,11,11,59,29.20
2014,08,11,12,00,29.20
2014,08,11,12,01,29.20
2014,08,11,12,02,29.20
2014,08,11,12,03,29.20
2014,08,11,12,04,29.30
2014,08,11,12,05,29.30
2014,08,11,12,06,29.40
2014,08,11,12,07,29.40
2014,08,11,12,08,29.50
2014,08,11,12,09,29.60
2014,08,11,12,10,29.70
2014,08,11,12,11,29.70
2014,08,11,12,12,29.80
2014,08,11,12,13,29.80
2014,08,11,12,14,29.90
2014,08,11,12,15,29.90
2014,08,11,12,16,30.00
2014,08,11,12,17,30.10
2014,08,11,12,18,30.10
2014,08,11,12,19,30.10
2014,08,11,12,20,30.00
2014,08,11,12,21,29.90
2014,08,11,12,22,29.80
2014,08,11,12,23,29.80
2014,08,11,12,24,29.80
2014,08,11,12,25,29.90
2014,08,11,12,26,29.90
2014,08,11,12,27,29.90
2014,08,11,12,28,30.00
2014,08,11,12,29,30.00
2014,08,11,12,30,30.10
2014,08,11,12,31,30.10
2014,08,11,12,32,30.20
2014,08,11,12,33,30.20
2014,08,11,12,34,30.20
2014,08,11,12,35,30.20
2014,08,11,12,36,30.20
2014,08,11,12,37,30.20
2014,08,11,12,38,30.30
2014,08,11,12,39,30.30
2014,08,11,12,40,30.40
2014,08,11,12,41,30.50
2014,08,11,12,42,30.50
2014,08,11,12,43,30.40
2014,08,11,12,44,30.40
2014,08,11,12,45,30.40
2014,08,11,12,46,30.40
2014,08,11,12,47,30.40
2014,08,11,12,48,30.40
2014,08,11,12,49,30.50
2014,08,11,12,50,30.50
2014,08,11,12,51,30.60
2014,08,11,12,52,30.60
2014,08,11,12,53,30.70
2014,08,11,12,54,30.80
2014,08,11,12,55,30.80
2014,08,11,12,56,30.80
2014,08,11,12,57,30.90
2014,08,11,12,58,30.90
2014,08,11,12,59,31.00
2014,08,11,13,00,31.00
2014,08,11,13,01,31.10
2014,08,11,13,02,31.10
2014,08,11,13,03,31.10
2014,08,11,13,04,31.00
2014,08,11,13,05,31.00
2014,08,11,13,06,31.00
2014,08,11,13,07,31.10
2014,08,11,13,08,31.10
2014,08,11,13,09,31.20
2014,08,11,13,10,31.30
2014,08,11,13,11,31.30
2014,08,11,13,12,31.30
2014,08,11,13,13,31.30
2014,08,11,13,14,31.30
2014,08,11,13,15,31.30
2014,08,11,13,16,31.30
2014,08,11,13,17,31.20
2014,08,11,13,18,31.20
2014,08,11,13,19,31.30
2014,08,11,13,20,31.30
2014,08,11,13,21,31.40
2014,08,11,13,22,31.50
2014,08,11,13,23,31.60
2014,08,11,13,24,31.70
2014,08,11,13,25,31.70
2014,08,11,13,26,31.80
2014,08,11,13,27,31.90
2014,08,11,13,28,31.90
2014,08,11,13,29,32.00
2014,08,11,13,30,32.10
2014,08,11,13,31,32.10
2014,08,11,13,32,32.20
2014,08,11,13,33,32.20
2014,08,11,13,34,32.30
2014,08,11,13,35,32.30
2014,08,11,13,36,32.40
2014,08,11,13,37,32.40
2014,08,11,13,38,32.40
2014,08,11,13,39,32.40
2014,08,11,13,40,32.40
2014,08,11,13,41,32.40
2014,08,11,13,42,32.30
2014,08,11,13,43,32.30
2014,08,11,13,44,32.30
2014,08,11,13,45,32.30
2014,08,11,13,46,32.30
2014,08,11,13,47,32.40
2014,08,11,13,48,32.50
2014,08,11,13,49,32.60
2014,08,11,13,50,32.60
2014,08,11,13,51,32.60
2014,08,11,13,52,32.70
2014,08,11,13,53,32.80
2014,08,11,13,54,32.80
2014,08,11,13,55,32.90
2014,08,11,13,56,32.90
2014,08,11,13,57,33.00
2014,08,11,13,58,33.10
2014,08,11,13,59,33.10
2014,08,11,14,00,33.10
2014,08,11,14,01,33.20
2014,08,11,14,02,33.20
2014,08,11,14,03,33.20
2014,08,11,14,04,33.30
2014,08,11,14,05,33.30
2014,08,11,14,06,33.30
2014,08,11,14,07,33.30
2014,08,11,14,08,33.30
2014,08,11,14,09,33.30
2014,08,11,14,10,33.40
2014,08,11,14,11,33.40
2014,08,11,14,12,33.40
2014,08,11,14,13,33.40
2014,08,11,14,14,33.50
2014,08,11,14,15,33.50
2014,08,11,14,16,33.50
2014,08,11,14,17,33.60
2014,08,11,14,18,33.60
2014,08,11,14,19,33.60
2014,08,11,14,20,33.60
2014,08,11,14,21,33.60
2014,08,11,14,22,33.60
2014,08,11,14,23,33.60
2014,08,11,14,24,33.60
2014,08,11,14,25,33.50
2014,08,11,14,26,33.50
2014,08,11,14,27,33.60
2014,08,11,14,28,33.60
2014,08,11,14,29,33.70
2014,08,11,14,30,33.70
2014,08,11,14,31,33.80
2014,08,11,14,32,33.80
2014,08,11,14,33,33.80
2014,08,11,14,34,33.80
2014,08,11,14,35,33.80
2014,08,11,14,36,33.80
2014,08,11,14,37,33.80
2014,08,11,14,38,33.80
2014,08,11,14,39,33.80
2014,08,11,14,40,33.80
2014,08,11,14,41,33.80
2014,08,11,14,42,33.70
2014,08,11,14,43,33.70
2014,08,11,14,44,33.70
2014,08,11,14,45,33.70
2014,08,11,14,46,33.60
2014,08,11,14,47,33.60
2014,08,11,14,48,33.50
2014,08,11,14,49,33.40
2014,08,11,14,50,33.40
2014,08,11,14,51,33.30
2014,08,11,14,52,33.30
2014,08,11,14,53,33.30
2014,08,11,14,54,33.20
2014,08,11,14,55,33.20
2014,08,11,14,56,33.20
2014,08,11,14,57,33.20
2014,08,11,14,58,33.20
2014,08,11,14,59,33.20
2014,08,11,15,00,33.20
2014,08,11,15,01,33.20
2014,08,11,15,02,33.10
2014,08,11,15,03,33.10
2014,08,11,15,04,33.10
2014,08,11,15,05,33.20
2014,08,11,15,06,33.20
2014,08,11,15,07,33.20
2014,08,11,15,08,33.20
2014,08,11,15,09,33.20
2014,08,11,15,10,33.20
2014,08,11,15,11,33.10
2014,08,11,15,12,33.10
2014,08,11,15,13,33.10
2014,08,11,15,14,33.00
2014,08,11,15,15,33.00
2014,08,11,15,16,32.90
2014,08,11,15,17,32.80
2014,08,11,15,18,32.80
2014,08,11,15,19,32.70
2014,08,11,15,20,32.60
2014,08,11,15,21,32.50
2014,08,11,15,22,32.40
2014,08,11,15,23,32.30
2014,08,11,15,24,32.20
2014,08,11,15,25,32.20
2014,08,11,15,26,32.10
2014,08,11,15,27,31.90
2014,08,11,15,28,31.80
2014,08,11,15,29,31.80
2014,08,11,15,30,31.80
2014,08,11,15,31,31.80
2014,08,11,15,32,31.80
2014,08,11,15,33,31.80
2014,08,11,15,34,31.90
2014,08,11,15,35,31.90
2014,08,11,15,36,31.90
2014,08,11,15,37,31.90
2014,08,11,15,38,31.90
2014,08,11,15,39,31.90
2014,08,11,15,40,31.90
2014,08,11,15,41,31.90
2014,08,11,15,42,31.90
2014,08,11,15,43,31.80
2014,08,11,15,44,31.80
2014,08,11,15,45,31.70
2014,08,11,15,46,31.70
2014,08,11,15,47,31.60
2014,08,11,15,48,31.50
2014,08,11,15,49,31.50
2014,08,11,15,50,31.40
2014,08,11,15,51,31.40
2014,08,11,15,52,31.40
2014,08,11,15,53,31.40
2014,08,11,15,54,31.40
2014,08,11,15,55,31.40
2014,08,11,15,56,31.40
2014,08,11,15,57,31.40
2014,08,11,15,58,31.50
2014,08,11,15,59,31.40
2014,08,11,16,00,31.40
2014,08,11,16,01,31.40
2014,08,11,16,02,31.40
2014,08,11,16,03,31.40
2014,08,11,16,04,31.40
2014,08,11,16,05,31.50
2014,08,11,16,06,31.50
2014,08,11,16,07,31.60
2014,08,11,16,08,31.70
2014,08,11,16,09,31.70
2014,08,11,16,10,31.80
2014,08,11,16,11,31.80
2014,08,11,16,12,31.80
2014,08,11,16,13,31.80
2014,08,11,16,14,31.80
2014,08,11,16,15,31.90
2014,08,11,16,16,31.90
2014,08,11,16,17,32.00
2014,08,11,16,18,32.00
2014,08,11,16,19,32.10
2014,08,11,16,20,32.20
2014,08,11,16,21,32.30
2014,08,11,16,22,32.40
2014,08,11,16,23,32.50
2014,08,11,16,24,32.60
2014,08,11,16,25,32.60
2014,08,11,16,26,32.70
2014,08,11,16,27,32.80
2014,08,11,16,28,32.80
2014,08,11,16,29,32.80
2014,08,11,16,30,32.90
2014,08,11,16,31,32.90
2014,08,11,16,32,32.90
2014,08,11,16,33,32.90
2014,08,11,16,34,32.90
2014,08,11,16,35,33.00
2014,08,11,16,36,33.00
2014,08,11,16,37,33.10
2014,08,11,16,38,33.20
2014,08,11,16,39,33.30
2014,08,11,16,40,33.30
2014,08,11,16,41,33.30
2014,08,11,16,42,33.30
2014,08,11,16,43,33.20
2014,08,11,16,44,33.20
2014,08,11,16,45,33.10
2014,08,11,16,46,33.00
2014,08,11,16,47,32.90
2014,08,11,16,48,32.90
2014,08,11,16,49,32.80
2014,08,11,16,50,32.80
2014,08,11,16,51,32.80
2014,08,11,16,52,32.80
2014,08,11,16,53,32.90
2014,08,11,16,54,32.90
2014,08,11,16,55,33.00
2014,08,11,16,56,33.10
2014,08,11,16,57,33.10
2014,08,11,16,58,33.10
2014,08,11,16,59,33.10
2014,08,11,17,00,33.10
2014,08,11,17,01,33.10
2014,08,11,17,02,33.10
2014,08,11,17,03,33.10
2014,08,11,17,04,33.20
2014,08,11,17,05,33.20
2014,08,11,17,06,33.20
2014,08,11,17,07,33.20
2014,08,11,17,08,33.30
2014,08,11,17,09,33.30
2014,08,11,17,10,33.30
2014,08,11,17,11,33.30
2014,08,11,17,12,33.30
2014,08,11,17,13,33.20
2014,08,11,17,14,33.10
2014,08,11,17,15,33.00
2014,08,11,17,16,33.00
2014,08,11,17,17,32.90
2014,08,11,17,18,32.90
2014,08,11,17,19,32.90